Location: Unspecified
(0.0000°N, 0.0000°E)
Time: 18:23:42
(UTC+00:00)

Lacrosse 5 - Visible Passes

Search period start: 13 August 2022 00:00
Search period end: 23 August 2022 00:00
Orbit: 714 x 724 km, 57.0° (Epoch: 09 March)

Date Brightness Start Highest point End Pass type
(mag) Time Alt. Az. Time Alt. Az. Time Alt. Az.
20 Aug 3.8 18:50:37 10° SE 18:51:23 11° SE 18:51:23 11° SE visible
20 Aug 4.5 20:30:23 10° SW 20:30:45 12° SW 20:30:45 12° SW visible
21 Aug 1.7 19:37:07 10° SSW 19:41:57 69° SE 19:41:57 69° SE visible
22 Aug 2.7 18:44:45 10° S 18:49:03 28° ESE 18:53:21 10° ENE visible
22 Aug 4.2 20:28:09 10° WSW 20:31:47 20° WNW 20:33:18 18° NW visible
